"read_dt","SO2 (ppb)","flags","PMT voltage (V)","lamp voltage (V)","lamp intensity (Hz)","internal temp (C)","react chamber temp (C)","sample flow (l/min)","pres (mmHg)","SO2 bkg (ppb)","SO2 coefficient"
2014-09-14 00:00:00,1768E-3,5C000000,-0724,0826,12091,029.1,045.5,0.476,736.1,01.18,0.508
2014-09-14 00:01:00,1888E-3,5C000000,-0724,0825,12314,029.1,045.5,0.476,736.1,01.18,0.508
2014-09-14 00:02:00,1734E-3,5C000000,-0724,0826,12079,029.1,045.5,0.476,736.2,01.18,0.508
2014-09-14 00:03:00,1628E-3,5C000000,-0724,0826,12316,029.1,045.5,0.475,736.1,01.18,0.508
2014-09-14 00:04:00,1815E-3,5C000000,-0724,0826,12162,029.1,045.5,0.475,736.1,01.18,0.508
2014-09-14 00:05:00,1787E-3,5C000000,-0724,0826,12143,029.1,045.5,0.476,736.1,01.18,0.508
2014-09-14 00:06:00,1725E-3,5C000000,-0724,0826,12297,029.1,045.5,0.476,736.1,01.18,0.508
2014-09-14 00:07:00,1832E-3,5C000000,-0724,0826,12218,029.1,045.5,0.476,736.1,01.18,0.508
2014-09-14 00:08:00,1773E-3,5C000000,-0724,0826,12237,029.1,045.5,0.475,736.1,01.18,0.508
2014-09-14 00:09:00,1784E-3,5C000000,-0724,0825,12251,029.1,045.5,0.475,736.1,01.18,0.508
2014-09-14 00:10:00,1779E-3,5C000000,-0724,0825,12268,029.1,045.5,0.475,736.1,01.18,0.508
2014-09-14 00:11:00,1811E-3,5C000000,-0724,0825,12255,029.1,045.5,0.476,736.1,01.18,0.508
2014-09-14 00:12:00,1816E-3,5C000000,-0724,0825,11988,029.1,045.5,0.476,736.1,01.18,0.508
2014-09-14 00:13:00,1762E-3,5C000000,-0724,0825,12140,029.1,045.5,0.476,736.1,01.18,0.508
2014-09-14 00:14:00,1829E-3,5C000000,-0724,0824,12335,029.1,045.5,0.475,736.1,01.18,0.508
2014-09-14 00:15:00,1817E-3,5C000000,-0724,0824,12176,029.1,045.5,0.475,736.1,01.18,0.508
2014-09-14 00:16:00,1909E-3,5C000000,-0724,0825,12339,029.1,045.5,0.475,736.1,01.18,0.508
2014-09-14 00:17:00,1842E-3,5C000000,-0724,0825,12265,029.1,045.5,0.476,736.1,01.18,0.508
2014-09-14 00:18:00,1769E-3,5C000000,-0724,0825,12231,029.1,045.5,0.476,736.1,01.18,0.508
2014-09-14 00:19:00,1766E-3,5C000000,-0724,0824,12050,029.1,045.5,0.476,736.1,01.18,0.508
2014-09-14 00:20:00,1819E-3,5C000000,-0724,0825,12409,029.1,045.5,0.475,736.1,01.18,0.508
2014-09-14 00:21:00,1816E-3,5C000000,-0724,0825,12599,029.1,045.5,0.475,736.1,01.18,0.508
2014-09-14 00:22:00,1663E-3,5C000000,-0724,0823,12414,029.1,045.5,0.475,736.1,01.18,0.508
2014-09-14 00:23:00,1793E-3,5C000000,-0724,0824,12271,029.1,045.5,0.476,736.1,01.18,0.508
2014-09-14 00:24:00,1855E-3,5C000000,-0724,0826,12137,029.1,045.5,0.475,736.1,01.18,0.508
2014-09-14 00:25:00,1938E-3,5C000000,-0724,0825,12202,029.1,045.5,0.475,736.1,01.18,0.508
2014-09-14 00:26:00,1784E-3,5C000000,-0724,0826,12337,029.1,045.5,0.476,736.1,01.18,0.508
2014-09-14 00:27:00,1839E-3,5C000000,-0724,0826,12316,029.1,045.5,0.476,736.1,01.18,0.508
2014-09-14 00:28:00,1752E-3,5C000000,-0724,0826,12213,029.1,045.5,0.475,736.1,01.18,0.508
2014-09-14 00:29:00,1801E-3,5C000000,-0724,0825,12202,029.1,045.5,0.475,736.1,01.18,0.508
2014-09-14 00:30:00,1747E-3,5C000000,-0724,0826,12123,029.1,045.5,0.475,736.1,01.18,0.508
2014-09-14 00:31:00,1797E-3,5C000000,-0724,0825,12168,029.1,045.5,0.475,736.0,01.18,0.508
2014-09-14 00:32:00,1838E-3,5C000000,-0724,0826,12278,029.1,045.5,0.476,736.0,01.18,0.508
2014-09-14 00:33:00,1789E-3,5C000000,-0724,0827,12116,029.1,045.5,0.476,736.0,01.18,0.508
2014-09-14 00:34:00,1770E-3,5C000000,-0724,0825,12146,029.1,045.5,0.476,736.0,01.18,0.508
2014-09-14 00:35:00,1818E-3,5C000000,-0724,0827,12176,029.1,045.5,0.475,736.0,01.18,0.508
2014-09-14 00:36:00,1824E-3,5C000000,-0724,0825,12438,029.1,045.5,0.475,736.0,01.18,0.508
2014-09-14 00:37:00,1681E-3,5C000000,-0724,0826,12356,029.1,045.5,0.475,736.1,01.18,0.508
2014-09-14 00:38:00,1818E-3,5C000000,-0724,0826,12257,029.1,045.5,0.475,736.0,01.18,0.508
2014-09-14 00:39:00,1730E-3,5C000000,-0724,0826,12227,029.1,045.5,0.476,736.0,01.18,0.508
2014-09-14 00:40:00,1959E-3,5C000000,-0724,0826,12002,029.1,045.5,0.476,736.0,01.18,0.508
2014-09-14 00:41:00,1762E-3,5C000000,-0724,0826,12202,029.1,045.5,0.475,736.0,01.18,0.508
2014-09-14 00:42:00,1900E-3,5C000000,-0724,0825,12299,029.1,045.5,0.475,736.0,01.18,0.508
2014-09-14 00:43:00,1793E-3,5C000000,-0724,0826,12268,029.1,045.5,0.475,736.0,01.18,0.508
2014-09-14 00:44:00,1888E-3,5C000000,-0724,0826,12233,029.1,045.5,0.475,736.0,01.18,0.508
2014-09-14 00:45:00,1785E-3,5C000000,-0724,0826,12256,029.1,045.5,0.476,736.0,01.18,0.508
2014-09-14 00:46:00,1790E-3,5C000000,-0724,0825,12018,029.1,045.5,0.476,736.0,01.18,0.508
2014-09-14 00:47:00,1790E-3,5C000000,-0724,0825,12078,029.1,045.5,0.476,736.0,01.18,0.508
2014-09-14 00:48:00,1708E-3,5C000000,-0724,0825,12254,029.1,045.5,0.475,736.0,01.18,0.508
2014-09-14 00:49:00,1803E-3,5C000000,-0724,0826,12284,029.1,045.5,0.475,736.0,01.18,0.508
2014-09-14 00:50:00,1823E-3,5C000000,-0724,0826,12110,029.1,045.5,0.475,736.1,01.18,0.508
2014-09-14 00:51:00,1830E-3,5C000000,-0724,0826,12283,029.1,045.5,0.476,736.1,01.18,0.508
2014-09-14 00:52:00,1825E-3,5C000000,-0724,0827,12162,029.1,045.5,0.476,736.1,01.18,0.508
2014-09-14 00:53:00,1994E-3,5C000000,-0724,0826,12199,029.1,045.5,0.476,736.1,01.18,0.508
2014-09-14 00:54:00,1827E-3,5C000000,-0724,0827,12134,029.1,045.5,0.475,736.1,01.18,0.508
2014-09-14 00:55:00,1940E-3,5C000000,-0724,0827,12190,029.1,045.5,0.475,736.1,01.18,0.508
2014-09-14 00:56:00,1762E-3,5C000000,-0724,0826,12280,029.1,045.5,0.475,736.1,01.18,0.508
2014-09-14 00:57:00,1789E-3,5C000000,-0724,0826,12198,029.1,045.5,0.475,736.1,01.18,0.508
2014-09-14 00:58:00,1821E-3,5C000000,-0724,0826,12014,029.1,045.5,0.476,736.1,01.18,0.508
2014-09-14 00:59:00,1760E-3,5C000000,-0724,0826,12281,029.1,045.5,0.476,736.1,01.18,0.508
2014-09-14 01:00:00,1828E-3,5C000000,-0724,0825,12158,029.1,045.5,0.475,736.1,01.18,0.508
2014-09-14 01:01:00,1801E-3,5C000000,-0724,0826,12350,029.1,045.5,0.475,736.1,01.18,0.508
2014-09-14 01:02:00,1917E-3,5C000000,-0724,0825,12335,029.1,045.5,0.475,736.1,01.18,0.508
2014-09-14 01:03:00,1800E-3,5C000000,-0724,0824,12348,029.1,045.5,0.475,736.1,01.18,0.508
2014-09-14 01:04:00,1786E-3,5C000000,-0724,0825,12278,029.1,045.5,0.476,736.1,01.18,0.508
2014-09-14 01:05:00,2029E-3,5C000000,-0724,0826,12232,029.1,045.5,0.476,736.1,01.18,0.508
2014-09-14 01:06:00,1842E-3,5C000000,-0724,0826,12364,029.1,045.5,0.475,736.2,01.18,0.508
2014-09-14 01:07:00,1817E-3,5C000000,-0724,0825,12322,029.1,045.5,0.475,736.1,01.18,0.508
2014-09-14 01:08:00,1762E-3,5C000000,-0724,0826,12312,029.1,045.5,0.475,736.2,01.18,0.508
2014-09-14 01:09:00,1708E-3,5C000000,-0724,0826,12037,029.1,045.5,0.475,736.2,01.18,0.508
2014-09-14 01:10:00,1782E-3,5C000000,-0724,0825,12150,029.1,045.5,0.476,736.2,01.18,0.508
2014-09-14 01:11:00,1918E-3,5C000000,-0724,0827,12170,029.1,045.5,0.476,736.2,01.18,0.508
2014-09-14 01:12:00,1769E-3,5C000000,-0724,0825,12071,029.1,045.5,0.476,736.2,01.18,0.508
2014-09-14 01:13:00,1908E-3,5C000000,-0724,0826,12305,029.1,045.5,0.475,736.2,01.18,0.508
2014-09-14 01:14:00,1870E-3,5C000000,-0724,0824,12193,029.1,045.5,0.475,736.2,01.18,0.508
2014-09-14 01:15:00,1913E-3,5C000000,-0724,0826,12082,029.1,045.5,0.475,736.2,01.18,0.508
2014-09-14 01:16:00,1853E-3,5C000000,-0724,0826,12177,029.1,045.5,0.476,736.2,01.18,0.508
2014-09-14 01:17:00,1717E-3,5C000000,-0724,0826,12263,029.1,045.5,0.476,736.2,01.18,0.508
2014-09-14 01:18:00,1684E-3,5C000000,-0724,0827,12257,029.1,045.5,0.476,736.3,01.18,0.508
2014-09-14 01:19:00,1719E-3,5C000000,-0724,0827,12241,029.1,045.5,0.475,736.2,01.18,0.508
2014-09-14 01:20:00,1786E-3,5C000000,-0724,0826,12020,029.1,045.5,0.475,736.3,01.18,0.508
2014-09-14 01:21:00,1927E-3,5C000000,-0724,0827,12164,029.1,045.5,0.475,736.3,01.18,0.508
2014-09-14 01:22:00,1732E-3,5C000000,-0724,0825,12128,029.1,045.5,0.476,736.3,01.18,0.508
2014-09-14 01:23:00,1749E-3,5C000000,-0724,0827,12302,029.1,045.5,0.476,736.3,01.18,0.508
2014-09-14 01:24:00,1859E-3,5C000000,-0724,0826,12021,029.1,045.5,0.476,736.3,01.18,0.508
2014-09-14 01:25:00,1854E-3,5C000000,-0724,0826,12248,029.1,045.5,0.475,736.3,01.18,0.508
2014-09-14 01:26:00,1777E-3,5C000000,-0724,0826,12098,029.1,045.5,0.475,736.3,01.18,0.508
2014-09-14 01:27:00,1720E-3,5C000000,-0724,0826,12305,029.1,045.5,0.475,736.3,01.18,0.508
2014-09-14 01:28:00,1755E-3,5C000000,-0724,0827,12186,029.1,045.5,0.476,736.3,01.18,0.508
2014-09-14 01:29:00,1839E-3,5C000000,-0724,0826,12179,029.1,045.5,0.476,736.2,01.18,0.508
2014-09-14 01:30:00,1879E-3,5C000000,-0724,0825,12215,029.1,045.5,0.476,736.2,01.18,0.508
2014-09-14 01:31:00,1959E-3,5C000000,-0724,0825,12284,029.1,045.5,0.476,736.2,01.18,0.508
2014-09-14 01:32:00,1763E-3,5C000000,-0724,0826,12162,029.1,045.5,0.475,736.2,01.18,0.508
2014-09-14 01:33:00,1820E-3,5C000000,-0724,0826,12058,029.1,045.5,0.475,736.2,01.18,0.508
2014-09-14 01:34:00,1704E-3,5C000000,-0724,0827,12359,029.1,045.5,0.475,736.2,01.18,0.508
2014-09-14 01:35:00,1862E-3,5C000000,-0724,0827,12142,029.1,045.5,0.476,736.2,01.18,0.508
2014-09-14 01:36:00,1848E-3,5C000000,-0724,0827,12197,029.1,045.5,0.476,736.2,01.18,0.508
2014-09-14 01:37:00,1826E-3,5C000000,-0724,0827,12252,029.1,045.5,0.476,736.2,01.18,0.508
2014-09-14 01:38:00,1870E-3,5C000000,-0724,0826,12184,029.1,045.5,0.475,736.2,01.18,0.508
2014-09-14 01:39:00,1891E-3,5C000000,-0724,0826,12244,029.1,045.5,0.475,736.2,01.18,0.508
2014-09-14 01:40:00,1818E-3,5C000000,-0724,0826,12269,029.1,045.5,0.475,736.2,01.18,0.508
2014-09-14 01:41:00,1910E-3,5C000000,-0724,0827,12403,029.1,045.5,0.476,736.2,01.18,0.508
2014-09-14 01:42:00,1942E-3,5C000000,-0724,0825,12219,029.1,045.5,0.476,736.2,01.18,0.508
2014-09-14 01:43:00,1629E-3,5C000000,-0724,0826,12305,029.1,045.5,0.476,736.2,01.18,0.508
2014-09-14 01:44:00,1800E-3,5C000000,-0724,0826,12373,029.1,045.5,0.475,736.2,01.18,0.508
2014-09-14 01:45:00,1815E-3,5C000000,-0724,0828,12419,029.1,045.5,0.475,736.2,01.18,0.508
2014-09-14 01:46:00,1799E-3,5C000000,-0724,0825,12371,029.1,045.5,0.475,736.1,01.18,0.508
2014-09-14 01:47:00,1797E-3,5C000000,-0724,0826,12135,029.1,045.5,0.475,736.1,01.18,0.508
2014-09-14 01:48:00,1798E-3,5C000000,-0724,0827,12021,029.1,045.5,0.476,736.1,01.18,0.508
2014-09-14 01:49:00,1878E-3,5C000000,-0724,0825,12267,029.1,045.5,0.476,736.1,01.18,0.508
2014-09-14 01:50:00,2015E-3,5C000000,-0724,0825,12106,029.1,045.5,0.476,736.1,01.18,0.508
2014-09-14 01:51:00,1742E-3,5C000000,-0724,0827,12243,029.1,045.5,0.475,736.1,01.18,0.508
2014-09-14 01:52:00,1900E-3,5C000000,-0724,0826,12244,029.1,045.5,0.475,736.1,01.18,0.508
2014-09-14 01:53:00,1888E-3,5C000000,-0724,0826,12197,029.1,045.5,0.475,736.0,01.18,0.508
2014-09-14 01:54:00,1750E-3,5C000000,-0724,0827,12207,029.1,045.5,0.475,736.1,01.18,0.508
2014-09-14 01:55:00,1761E-3,5C000000,-0724,0826,12220,029.1,045.5,0.476,736.1,01.18,0.508
2014-09-14 01:56:00,1827E-3,5C000000,-0724,0827,12260,029.1,045.5,0.476,736.1,01.18,0.508
2014-09-14 01:57:00,1805E-3,5C000000,-0724,0826,12299,029.1,045.5,0.475,736.0,01.18,0.508
2014-09-14 01:58:00,1741E-3,5C000000,-0724,0826,12314,029.1,045.5,0.475,736.0,01.18,0.508
2014-09-14 01:59:00,1816E-3,5C000000,-0724,0825,12291,029.1,045.5,0.475,736.1,01.18,0.508
2014-09-14 02:00:00,1818E-3,5C000000,-0724,0826,12105,029.1,045.5,0.475,736.0,01.18,0.508
2014-09-14 02:01:00,1779E-3,5C000000,-0724,0826,12457,029.1,045.5,0.475,736.0,01.18,0.508
2014-09-14 02:02:00,1776E-3,5C000000,-0724,0827,12512,029.1,045.5,0.476,736.0,01.18,0.508
2014-09-14 02:03:00,1811E-3,5C000000,-0724,0827,12278,029.1,045.5,0.476,736.0,01.18,0.508
2014-09-14 02:04:00,1758E-3,5C000000,-0724,0825,12242,029.1,045.5,0.475,736.0,01.18,0.508
2014-09-14 02:05:00,1840E-3,5C000000,-0724,0825,12167,029.2,045.5,0.475,736.0,01.18,0.508
2014-09-14 02:06:00,1812E-3,5C000000,-0724,0826,12398,029.1,045.5,0.475,736.0,01.18,0.508
2014-09-14 02:07:00,1847E-3,5C000000,-0724,0825,12073,029.1,045.5,0.475,736.0,01.18,0.508
2014-09-14 02:08:00,1632E-3,5C000000,-0724,0826,12031,029.2,045.5,0.476,736.0,01.18,0.508
2014-09-14 02:09:00,1830E-3,5C000000,-0724,0827,12258,029.2,045.5,0.476,736.0,01.18,0.508
2014-09-14 02:10:00,1850E-3,5C000000,-0724,0826,12301,029.2,045.5,0.475,736.0,01.18,0.508
2014-09-14 02:11:00,1884E-3,5C000000,-0724,0827,12333,029.2,045.5,0.475,736.0,01.18,0.508
2014-09-14 02:12:00,1770E-3,5C000000,-0724,0826,12265,029.2,045.5,0.475,736.0,01.18,0.508
2014-09-14 02:13:00,1904E-3,5C000000,-0724,0827,12309,029.2,045.5,0.475,736.0,01.18,0.508
2014-09-14 02:14:00,1754E-3,5C000000,-0724,0827,12231,029.2,045.5,0.475,736.0,01.18,0.508
2014-09-14 02:15:00,1704E-3,5C000000,-0724,0828,12237,029.2,045.5,0.476,736.0,01.18,0.508
2014-09-14 02:16:00,1911E-3,5C000000,-0724,0827,11973,029.2,045.5,0.475,736.0,01.18,0.508
2014-09-14 02:17:00,1907E-3,5C000000,-0724,0826,12101,029.2,045.5,0.475,736.0,01.18,0.508
2014-09-14 02:18:00,1822E-3,5C000000,-0724,0827,12281,029.2,045.5,0.475,736.0,01.18,0.508
2014-09-14 02:19:00,1768E-3,5C000000,-0724,0827,12009,029.2,045.5,0.475,736.0,01.18,0.508
2014-09-14 02:20:00,1992E-3,5C000000,-0724,0826,12295,029.2,045.5,0.475,735.9,01.18,0.508
2014-09-14 02:21:00,1892E-3,5C000000,-0724,0826,12350,029.2,045.5,0.475,735.9,01.18,0.508
2014-09-14 02:22:00,1748E-3,5C000000,-0724,0827,12246,029.2,045.5,0.476,735.9,01.18,0.508
2014-09-14 02:23:00,1848E-3,5C000000,-0724,0826,12220,029.2,045.5,0.475,735.9,01.18,0.508
2014-09-14 02:24:00,1695E-3,5C000000,-0724,0826,12343,029.2,045.5,0.475,735.9,01.18,0.508
2014-09-14 02:25:00,1783E-3,5C000000,-0724,0827,12179,029.2,045.5,0.475,735.9,01.18,0.508
2014-09-14 02:26:00,1738E-3,5C000000,-0724,0827,12321,029.2,045.5,0.475,735.9,01.18,0.508
2014-09-14 02:27:00,1812E-3,5C000000,-0724,0827,12322,029.2,045.5,0.475,735.9,01.18,0.508
2014-09-14 02:28:00,1902E-3,5C000000,-0724,0826,12189,029.2,045.5,0.475,735.9,01.18,0.508
2014-09-14 02:29:00,1913E-3,5C000000,-0724,0826,11973,029.2,045.5,0.475,735.9,01.18,0.508
2014-09-14 02:30:00,1808E-3,5C000000,-0724,0826,12252,029.2,045.5,0.475,735.9,01.18,0.508
2014-09-14 02:31:00,1891E-3,5C000000,-0724,0826,12283,029.2,045.5,0.475,735.9,01.18,0.508
2014-09-14 02:32:00,1734E-3,5C000000,-0724,0827,12336,029.2,045.5,0.475,735.9,01.18,0.508
2014-09-14 02:33:00,1811E-3,5C000000,-0724,0826,12317,029.2,045.5,0.475,735.9,01.18,0.508
2014-09-14 02:34:00,1802E-3,5C000000,-0724,0827,11993,029.2,045.5,0.475,735.9,01.18,0.508
2014-09-14 02:35:00,1908E-3,5C000000,-0724,0826,12195,029.2,045.5,0.475,735.9,01.18,0.508
2014-09-14 02:36:00,1846E-3,5C000000,-0724,0826,12236,029.3,045.5,0.475,735.9,01.18,0.508
2014-09-14 02:37:00,1751E-3,5C000000,-0724,0827,12135,029.3,045.5,0.475,735.9,01.18,0.508
2014-09-14 02:38:00,1744E-3,5C000000,-0724,0827,12233,029.3,045.5,0.475,735.9,01.18,0.508
2014-09-14 02:39:00,1808E-3,5C000000,-0724,0825,12144,029.3,045.5,0.475,735.9,01.18,0.508
2014-09-14 02:40:00,1731E-3,5C000000,-0724,0826,12260,029.2,045.5,0.475,735.9,01.18,0.508
2014-09-14 02:41:00,1811E-3,5C000000,-0724,0825,12216,029.3,045.5,0.475,735.9,01.18,0.508
2014-09-14 02:42:00,1800E-3,5C000000,-0724,0826,12210,029.3,045.5,0.475,735.9,01.18,0.508
2014-09-14 02:43:00,1887E-3,5C000000,-0724,0825,12100,029.3,045.5,0.475,735.9,01.18,0.508
2014-09-14 02:44:00,1865E-3,5C000000,-0724,0826,12340,029.3,045.5,0.475,735.8,01.18,0.508
2014-09-14 02:45:00,1706E-3,5C000000,-0724,0825,12199,029.3,045.5,0.475,735.8,01.18,0.508
2014-09-14 02:46:00,1839E-3,5C000000,-0724,0826,12230,029.3,045.5,0.475,735.8,01.18,0.508
2014-09-14 02:47:00,1992E-3,5C000000,-0724,0826,12267,029.3,045.5,0.475,735.8,01.18,0.508
2014-09-14 02:48:00,1685E-3,5C000000,-0724,0826,12224,029.3,045.5,0.475,735.8,01.18,0.508
2014-09-14 02:49:00,1888E-3,5C000000,-0724,0826,12240,029.3,045.5,0.475,735.8,01.18,0.508
2014-09-14 02:50:00,1825E-3,5C000000,-0724,0826,11938,029.3,045.5,0.475,735.8,01.18,0.508
2014-09-14 02:51:00,1859E-3,5C000000,-0724,0826,12078,029.3,045.5,0.475,735.8,01.18,0.508
2014-09-14 02:52:00,1723E-3,5C000000,-0724,0826,12315,029.3,045.5,0.475,735.8,01.18,0.508
2014-09-14 02:53:00,1783E-3,5C000000,-0724,0826,12150,029.3,045.5,0.475,735.8,01.18,0.508
2014-09-14 02:54:00,1669E-3,5C000000,-0724,0826,12350,029.3,045.5,0.475,735.8,01.18,0.508
2014-09-14 02:55:00,1648E-3,5C000000,-0724,0826,12235,029.3,045.5,0.475,735.8,01.18,0.508
2014-09-14 02:56:00,1823E-3,5C000000,-0724,0826,12058,029.3,045.5,0.475,735.8,01.18,0.508
2014-09-14 02:57:00,1723E-3,5C000000,-0724,0826,12178,029.3,045.5,0.475,735.8,01.18,0.508
2014-09-14 02:58:00,1857E-3,5C000000,-0724,0826,12240,029.3,045.5,0.475,735.7,01.18,0.508
2014-09-14 02:59:00,1803E-3,5C000000,-0724,0826,12303,029.3,045.5,0.475,735.7,01.18,0.508
2014-09-14 03:00:00,1678E-3,5C000000,-0724,0826,12078,029.3,045.5,0.475,735.7,01.18,0.508
2014-09-14 03:01:00,1684E-3,5C000000,-0724,0826,12199,029.3,045.5,0.475,735.7,01.18,0.508
2014-09-14 03:02:00,1799E-3,5C000000,-0724,0826,12185,029.3,045.5,0.475,735.7,01.18,0.508
2014-09-14 03:03:00,1846E-3,5C000000,-0724,0826,12262,029.3,045.5,0.475,735.7,01.18,0.508
2014-09-14 03:04:00,1654E-3,5C000000,-0724,0825,11988,029.3,045.5,0.475,735.7,01.18,0.508
2014-09-14 03:05:00,1882E-3,5C000000,-0724,0826,12270,029.3,045.5,0.475,735.7,01.18,0.508
2014-09-14 03:06:00,1745E-3,5C000000,-0724,0826,12264,029.3,045.5,0.475,735.7,01.18,0.508
2014-09-14 03:07:00,1676E-3,5C000000,-0724,0825,12241,029.3,045.5,0.475,735.7,01.18,0.508
2014-09-14 03:08:00,1761E-3,5C000000,-0724,0827,12220,029.3,045.5,0.475,735.7,01.18,0.508
2014-09-14 03:09:00,1751E-3,5C000000,-0724,0827,12327,029.3,045.5,0.475,735.7,01.18,0.508
2014-09-14 03:10:00,1827E-3,5C000000,-0724,0826,12075,029.3,045.5,0.475,735.7,01.18,0.508
2014-09-14 03:11:00,1786E-3,5C000000,-0724,0825,12226,029.3,045.5,0.475,735.6,01.18,0.508
2014-09-14 03:12:00,1706E-3,5C000000,-0724,0825,12273,029.3,045.5,0.475,735.6,01.18,0.508
2014-09-14 03:13:00,1754E-3,5C000000,-0724,0825,12013,029.3,045.5,0.475,735.6,01.18,0.508
2014-09-14 03:14:00,1672E-3,5C000000,-0724,0826,12380,029.3,045.5,0.475,735.6,01.18,0.508
2014-09-14 03:15:00,1723E-3,5C000000,-0724,0826,12283,029.3,045.5,0.475,735.6,01.18,0.508
2014-09-14 03:16:00,1894E-3,5C000000,-0724,0826,12354,029.3,045.5,0.474,735.5,01.18,0.508
2014-09-14 03:17:00,1893E-3,5C000000,-0724,0826,12170,029.4,045.5,0.475,735.6,01.18,0.508
2014-09-14 03:18:00,1743E-3,5C000000,-0724,0826,12249,029.4,045.5,0.475,735.6,01.18,0.508
2014-09-14 03:19:00,1796E-3,5C000000,-0724,0827,12417,029.3,045.5,0.475,735.6,01.18,0.508
2014-09-14 03:20:00,1820E-3,5C000000,-0724,0826,12179,029.3,045.5,0.475,735.6,01.18,0.508
2014-09-14 03:21:00,1804E-3,5C000000,-0724,0826,12197,029.3,045.5,0.475,735.5,01.18,0.508
2014-09-14 03:22:00,1785E-3,5C000000,-0724,0826,12300,029.3,045.5,0.475,735.5,01.18,0.508
2014-09-14 03:23:00,1785E-3,5C000000,-0724,0826,12282,029.3,045.5,0.475,735.5,01.18,0.508
2014-09-14 03:24:00,1785E-3,5C000000,-0724,0826,12318,029.4,045.5,0.475,735.5,01.18,0.508
2014-09-14 03:25:00,1782E-3,5C000000,-0724,0825,12221,029.4,045.5,0.475,735.5,01.18,0.508
2014-09-14 03:26:00,1734E-3,5C000000,-0724,0826,12285,029.3,045.5,0.475,735.5,01.18,0.508
2014-09-14 03:27:00,1620E-3,5C000000,-0724,0826,12230,029.3,045.5,0.475,735.5,01.18,0.508
2014-09-14 03:28:00,1710E-3,5C000000,-0724,0827,12256,029.4,045.5,0.474,735.5,01.18,0.508
2014-09-14 03:29:00,1785E-3,5C000000,-0724,0826,12169,029.4,045.5,0.475,735.5,01.18,0.508
2014-09-14 03:30:00,1850E-3,5C000000,-0724,0826,12338,029.4,045.5,0.475,735.5,01.18,0.508
2014-09-14 03:31:00,1845E-3,5C000000,-0724,0826,12194,029.4,045.5,0.475,735.5,01.18,0.508
2014-09-14 03:32:00,1783E-3,5C000000,-0724,0826,12180,029.4,045.5,0.475,735.5,01.18,0.508
2014-09-14 03:33:00,1968E-3,5C000000,-0724,0826,12315,029.4,045.5,0.475,735.5,01.18,0.508
2014-09-14 03:34:00,1809E-3,5C000000,-0724,0827,12261,029.4,045.5,0.474,735.5,01.18,0.508
2014-09-14 03:35:00,1692E-3,5C000000,-0724,0826,12409,029.4,045.5,0.475,735.5,01.18,0.508
2014-09-14 03:36:00,1812E-3,5C000000,-0724,0826,12166,029.4,045.5,0.475,735.5,01.18,0.508
2014-09-14 03:37:00,1799E-3,5C000000,-0724,0826,12241,029.4,045.5,0.475,735.5,01.18,0.508
2014-09-14 03:38:00,1851E-3,5C000000,-0724,0826,12331,029.4,045.5,0.475,735.5,01.18,0.508
2014-09-14 03:39:00,1786E-3,5C000000,-0724,0827,12303,029.4,045.5,0.475,735.5,01.18,0.508
2014-09-14 03:40:00,1858E-3,5C000000,-0724,0826,12327,029.4,045.5,0.475,735.5,01.18,0.508
2014-09-14 03:41:00,1707E-3,5C000000,-0724,0826,12255,029.4,045.5,0.475,735.4,01.18,0.508
2014-09-14 03:42:00,1867E-3,5C000000,-0724,0826,12210,029.4,045.5,0.474,735.5,01.18,0.508
2014-09-14 03:43:00,1837E-3,5C000000,-0724,0826,12221,029.4,045.5,0.474,735.4,01.18,0.508
2014-09-14 03:44:00,1753E-3,5C000000,-0724,0826,12238,029.4,045.5,0.475,735.4,01.18,0.508
2014-09-14 03:45:00,1655E-3,5C000000,-0724,0826,12189,029.4,045.5,0.475,735.4,01.18,0.508
2014-09-14 03:46:00,1735E-3,5C000000,-0724,0826,12376,029.4,045.5,0.475,735.4,01.18,0.508
2014-09-14 03:47:00,1764E-3,5C000000,-0724,0827,12222,029.4,045.5,0.475,735.4,01.18,0.508
2014-09-14 03:48:00,1742E-3,5C000000,-0724,0826,12238,029.4,045.5,0.474,735.4,01.18,0.508
2014-09-14 03:49:00,1795E-3,5C000000,-0724,0826,12297,029.4,045.5,0.474,735.4,01.18,0.508
2014-09-14 03:50:00,1822E-3,5C000000,-0724,0828,12052,029.5,045.5,0.475,735.4,01.18,0.508
2014-09-14 03:51:00,1674E-3,5C000000,-0724,0827,12037,029.4,045.5,0.475,735.4,01.18,0.508
2014-09-14 03:52:00,1902E-3,5C000000,-0724,0826,12259,029.4,045.5,0.475,735.3,01.18,0.508
2014-09-14 03:53:00,1843E-3,5C000000,-0724,0826,12152,029.5,045.5,0.475,735.3,01.18,0.508
2014-09-14 03:54:00,1743E-3,5C000000,-0724,0827,12370,029.5,045.5,0.474,735.3,01.18,0.508
2014-09-14 03:55:00,1823E-3,5C000000,-0724,0826,12264,029.5,045.5,0.474,735.4,01.18,0.508
2014-09-14 03:56:00,1764E-3,5C000000,-0724,0827,12310,029.5,045.5,0.474,735.4,01.18,0.508
2014-09-14 03:57:00,1811E-3,5C000000,-0724,0826,12221,029.5,045.5,0.475,735.4,01.18,0.508
2014-09-14 03:58:00,1716E-3,5C000000,-0724,0826,12214,029.5,045.5,0.475,735.4,01.18,0.508
2014-09-14 03:59:00,1800E-3,5C000000,-0724,0825,12318,029.5,045.5,0.475,735.4,01.18,0.508
2014-09-14 04:00:00,1858E-3,5C000000,-0724,0827,12250,029.5,045.5,0.475,735.4,01.18,0.508
2014-09-14 04:01:00,1763E-3,5C000000,-0724,0826,12192,029.5,045.5,0.475,735.5,01.18,0.508
2014-09-14 04:02:00,1859E-3,5C000000,-0724,0827,12034,029.5,045.5,0.474,735.5,01.18,0.508
2014-09-14 04:03:00,1867E-3,5C000000,-0724,0825,12364,029.5,045.5,0.474,735.5,01.18,0.508
2014-09-14 04:04:00,1900E-3,5C000000,-0724,0826,12322,029.5,045.5,0.475,735.5,01.18,0.508
2014-09-14 04:05:00,1798E-3,5C000000,-0724,0826,12230,029.5,045.5,0.475,735.5,01.18,0.508
2014-09-14 04:06:00,1811E-3,5C000000,-0724,0826,12247,029.5,045.5,0.475,735.5,01.18,0.508
2014-09-14 04:07:00,1868E-3,5C000000,-0724,0826,12315,029.5,045.5,0.475,735.4,01.18,0.508
2014-09-14 04:08:00,1849E-3,5C000000,-0724,0825,12244,029.5,045.5,0.475,735.4,01.18,0.508
2014-09-14 04:09:00,1874E-3,5C000000,-0724,0825,12277,029.5,045.5,0.474,735.4,01.18,0.508
2014-09-14 04:10:00,1700E-3,5C000000,-0724,0825,12276,029.5,045.5,0.474,735.4,01.18,0.508
2014-09-14 04:11:00,1796E-3,5C000000,-0724,0825,12255,029.5,045.5,0.475,735.5,01.18,0.508
2014-09-14 04:12:00,1833E-3,5C000000,-0724,0825,12277,029.5,045.6,0.475,735.4,01.18,0.508
2014-09-14 04:13:00,1792E-3,5C000000,-0724,0825,12304,029.5,045.5,0.475,735.4,01.18,0.508
2014-09-14 04:14:00,1815E-3,5C000000,-0724,0825,12175,029.5,045.5,0.475,735.4,01.18,0.508
2014-09-14 04:15:00,1746E-3,5C000000,-0724,0826,12211,029.5,045.5,0.475,735.4,01.18,0.508
2014-09-14 04:16:00,1766E-3,5C000000,-0724,0825,12274,029.5,045.5,0.474,735.4,01.18,0.508
2014-09-14 04:17:00,1850E-3,5C000000,-0724,0826,12182,029.5,045.5,0.474,735.5,01.18,0.508
2014-09-14 04:18:00,1809E-3,5C000000,-0724,0825,12343,029.5,045.6,0.474,735.5,01.18,0.508
2014-09-14 04:19:00,1741E-3,5C000000,-0724,0825,12234,029.5,045.5,0.475,735.4,01.18,0.508
2014-09-14 04:20:00,1715E-3,5C000000,-0724,0824,12247,029.5,045.5,0.475,735.5,01.18,0.508